Regional Weather Roundup
Issued by NWS Cleveland, OH

Home | Current Version | Previous Version | Text Only | Print | Product List | Glossary Off
Versions: 1 2 3 4 5 6 7 8 9 10 11 12 13 14 15 16 17 18 19 20 21 22 23 24 25 26 27 28 29 30 31 32 33 34 35 36 37 38 39 40 41 42 43 44 45 46 47 48 49 50

000
ASUS41 KCLE 162302
RWRCLE
OHIO REGIONAL WEATHER ROUNDUP
NATIONAL WEATHER SERVICE CLEVELAND, OH
600 PM EST SAT DEC 16 2017

NOTE: "FAIR" INDICATES FEW OR NO CLOUDS BELOW 12,000 FEET WITH NO
SIGNIFICANT WEATHER AND/OR OBSTRUCTIONS TO VISIBILITY.

OHZ001>008-015>018-024>027-034-035-043-044-170000-
   NORTHWEST OHIO

CITY           SKY/WX    TMP DP  RH WIND       PRES   REMARKS
DEFIANCE       CLEAR     34  26  72 NE3       30.03R
FINDLAY        CLEAR     40  28  62 CALM      30.03R
TOLEDO EXPRESS CLEAR     36  29  75 E5        30.05R
TOLEDO EXEC    CLEAR     31  28  89 NE10      30.07R WCI  22
LIMA           CLEAR     41  29  62 SW7       30.02R
$$

OHZ009>014-019>023-028>033-038-089-170000-
   NORTHEAST OHIO

CITY           SKY/WX    TMP DP  RH WIND       PRES   REMARKS
CLE-HOPKINS    CLEAR     37  28  70 CALM      30.10R
CLE-LAKEFRONT  PTCLDY    36  31  82 NE13      30.08R
CUY CO. ARPT   PTCLDY    37  28  70 NE9       30.08R
LORAIN-ELYRIA  CLEAR     33  24  69 CALM      30.07R
ASHTABULA      CLOUDY    31  29  92 CALM      30.08R
AKRON-CANTON   CLEAR     36  25  64 CALM      30.06R
WOOSTER        CLEAR     29  24  82 CALM      30.06R
MANSFIELD      CLEAR     38  27  64 S6        30.04R
YOUNGSTOWN     CLOUDY    35  27  72 NE3       30.05R
$$

OHZ042-051>053-060>062-070>072-077>081-170000-
  SOUTHWEST OHIO

CITY           SKY/WX    TMP DP  RH WIND       PRES   REMARKS
CINC-COVINGTON PTCLDY    45  28  51 S10       30.08R
CINC-LUNKEN    CLEAR     45  28  51 S14       30.10R
HAMILTON       CLEAR     47  27  45 S7        30.07R
DAYTON         CLEAR     43  27  53 SW14      30.03R
WRIGHT-PAT AFB CLEAR     43  24  47 S12       30.03R
DAYTON GENERAL CLEAR     44  26  49 SW12      30.03S
WILMINGTON     CLEAR     40  27  59 SW10      30.05R
$$

OHZ036-037-039>041-045>050-054>059-063>069-073>076-082>088-170000-
  CENTRAL AND SOUTHEAST OHIO

CITY           SKY/WX    TMP DP  RH WIND       PRES   REMARKS
COLUMBUS       PTCLDY    44  28  53 S6        30.05R
OSU AIRPORT    CLEAR     41  28  60 SW7       30.05R
BOLTON FIELD   CLEAR     41  28  60 S9        30.05R
RICKENBACK AFB CLEAR     40  27  59 S9        30.05S
NEWARK         CLEAR     41  27  57 S6        30.05R
MARION         NOT AVBL
LANCASTER      CLEAR     40  27  59 S6        30.06R
ZANESVILLE     CLEAR     40  25  55 S6        30.06R
NEW PHILLY     NOT AVBL
$$




USA.gov is the U.S. government's official web portal to all federal, state and local government web resources and services.